Weather History for KSWO - December, 2012

Change the Weather History Date:

Tuesday, December 11, 2012

  Actual Average Record
Temperature  
Mean Temperature 35 °F -  
Max Temperature 51 °F 49 °F 66 °F (2006)
Min Temperature 19 °F 28 °F 10 °F (2000)
Degree Days  
Heating Degree Days 30    
Moisture  
Dew Point 11 °F    
Average Humidity 43    
Maximum Humidity 68    
Minimum Humidity 21    
Precipitation  
Precipitation 0.00 in - - ()
Sea Level Pressure  
Sea Level Pressure 30.14 in    
Wind  
Wind Speed 4 mph (SSW)    
Max Wind Speed 13 mph    
Max Gust Speed 16 mph    
Visibility 10 miles    
Events      
Averages and records for this station are not official NWS values.
T = Trace of Precipitation, MM = Missing Value Source: NWS Daily Summary

Daily Weather History Graph

Daily Weather History Graph

Search for Another Location

Airport or City:

Trip Planner

Search our weather history database for the weather conditions in past years. The results will help you decide how hot, cold, wet, or windy it might be!

Date:

Astronomy

Dec. 11, 2012 Rise Set
Actual Time 7:29 AM CST 5:14 PM CST
Civil Twilight 7:01 AM CST 5:42 PM CST
Nautical Twilight 6:28 AM CST 6:14 PM CST
Astronomical Twilight 5:57 AM CST 6:46 PM CST
Moon 5:27 AM CST (12/11) 3:53 PM CST (12/11)
Length of Visible Light 10h 41m
Length of Day
9h 44m
Waning Crescent, 4% of the Moon is Illuminated
Dec 11
Waning Crescent
Dec 13
New
Dec 19
First Quarter
Dec 28
Full
Jan 4
Last Quarter

Hourly Weather History & Observations

Time (CST) Temp. Windchill Dew Point Humidity Pressure Visibility Wind Dir Wind Speed Gust Speed Precip Events Conditions
12:53 AM 19.0 °F 13.9 °F 3.9 °F 52% 30.11 in 10.0 mi South 3.5 mph - N/A   Clear
1:53 AM 19.9 °F 13.4 °F 5.0 °F 52% 30.10 in 10.0 mi South 4.6 mph - N/A   Clear
2:53 AM 19.9 °F 12.1 °F 6.1 °F 55% 30.11 in 10.0 mi South 5.8 mph - N/A   Clear
3:53 AM 19.9 °F - 5.0 °F 52% 30.10 in 10.0 mi Calm Calm - N/A   Clear
4:53 AM 19.9 °F - 8.1 °F 60% 30.10 in 10.0 mi Calm Calm - N/A   Clear
5:53 AM 19.0 °F 13.9 °F 7.0 °F 59% 30.11 in 10.0 mi SW 3.5 mph - N/A   Clear
6:53 AM 19.9 °F - 9.0 °F 62% 30.12 in 10.0 mi Calm Calm - N/A   Clear
7:53 AM 19.0 °F - 10.0 °F 68% 30.14 in 10.0 mi Calm Calm - N/A   Clear
8:53 AM 28.0 °F - 14.0 °F 56% 30.15 in 10.0 mi Calm Calm - N/A   Clear
9:53 AM 36.0 °F 30.3 °F 15.1 °F 43% 30.17 in 10.0 mi SW 6.9 mph - N/A   Clear
10:53 AM 42.1 °F 37.7 °F 14.0 °F 32% 30.17 in 10.0 mi SW 6.9 mph - N/A   Clear
11:53 AM 45.0 °F 40.6 °F 15.1 °F 30% 30.15 in 10.0 mi West 8.1 mph - N/A   Clear
12:53 PM 48.9 °F - 16.0 °F 27% 30.12 in 10.0 mi SSW 8.1 mph - N/A   Clear
1:53 PM 51.1 °F - 14.0 °F 23% 30.10 in 10.0 mi WSW 9.2 mph 16.1 mph N/A   Clear
2:53 PM 51.1 °F - 12.0 °F 21% 30.10 in 10.0 mi WSW 12.7 mph - N/A   Clear
3:53 PM 51.1 °F - 12.0 °F 21% 30.11 in 10.0 mi WSW 9.2 mph - N/A   Clear
4:53 PM 46.9 °F - 12.9 °F 25% 30.11 in 10.0 mi SSW 6.9 mph - N/A   Clear
5:53 PM 39.9 °F 35.8 °F 12.0 °F 32% 30.13 in 10.0 mi SSW 5.8 mph - N/A   Clear
6:53 PM 39.0 °F 36.8 °F 14.0 °F 36% 30.15 in 10.0 mi SSW 3.5 mph - N/A   Clear
7:53 PM 36.0 °F 32.1 °F 14.0 °F 41% 30.17 in 10.0 mi SSW 4.6 mph - N/A   Clear
8:53 PM 34.0 °F 28.8 °F 14.0 °F 44% 30.17 in 10.0 mi South 5.8 mph - N/A   Clear
9:53 PM 33.1 °F 28.7 °F 14.0 °F 46% 30.18 in 10.0 mi South 4.6 mph - N/A   Clear
10:53 PM 32.0 °F - 12.9 °F 45% 30.19 in 10.0 mi Calm Calm - N/A   Clear
11:53 PM 30.9 °F 24.3 °F 12.9 °F 47% 30.20 in 10.0 mi South 6.9 mph - N/A   Clear